Live-Position
3D-Globus wird geladen...
Über OneWeb SL0062
Group: 3 satellites
Beschreibung wird geladen...
Nächste Überflüge
Passes for default location (London). Set your location on the main map for personalized predictions.
Höhenverlauf
Loading altitude history...
No altitude history available
Zweizeiliger Elementsatz
1 45163U 20008AJ 26106.84152215 -.00000148 00000-0 -46116-3 0 9998
2 45163 87.8843 48.4713 0001792 73.7313 286.4011 13.10366852300155
Epoch: 16. Apr. 2026 •
Age: 11 hours
Aktueller Status
Höhe 1234.1 km
Geschwindigkeit 7.25 km/s
Subsatellitenpunkt 83.08°N,
106.32°E
Startdatum 6. Feb. 2020
Alter 6.1 years
Typ internet
Startgruppe
Unknown Vehicle •
OneWeb Launch 2 •
34 satellites
OneWeb SL0013
45131
OneWeb SL0017 45132
OneWeb SL0020 45133
OneWeb SL0021 45134
OneWeb SL0022 45135
OneWeb SL0023 45136
OneWeb SL0024 45137
OneWeb SL0025 45138
OneWeb SL0026 45139
OneWeb SL0028 45140
OneWeb SL0032 45141
OneWeb SL0033 45142
OneWeb SL0035 45143
OneWeb SL0036 45144
OneWeb SL0038 45145
OneWeb SL0039 45146
OneWeb SL0040 45147
OneWeb SL0041 45148
OneWeb SL0043 45149
OneWeb SL0044 45150
...and 13 more
Technische Details
Klassifizierung Payload
Masse 148.00 kg
Trockenmasse 140.00 kg
Gesamtmasse 148.00 kg
Länge 1.30 m
Durchmesser 1.00 m
Spannweite 5.00 m
Form Trapezoid+2 pan
Hersteller ONEWUS
Bus-Typ ARROW
Phasenstatus In Orbit
Besitzer/Staat ONEWEB/UK
Most Searched
Loading...